Content
SEND FEEDBACK

Daily
Averages
Monthly
Summary
Norway

FINNSNES, NORWAY


Home > Europe > Norway
Elevation: 39 feet     Latitude: 69 21N     Longitude: 018 15E

WEATHER
 
SELECT A DAY
Number of Records: 208,982;   Date Range: 7/2/96 - 9/7/14
 
SHARE

PRINT THIS DATA

[ ← Previous Day ]
WEATHER ALMANAC - JANUARY 23, 2013
[ Next Day → ]
[ °C ]   °F
Weather ElementAverageHighLow
Temperature21.8 °F24.8 °F (6:20 pm)19.4 °F (3:50 am)
Dewpoint19.4 °F23 °F (6:50 pm)17.6 °F (1:50 am)
Humidity90.1 %95 % (7:00 pm)80 % (4:20 pm)
Barometer29.74 in29.78 in (1:00 pm)29.71 in (5:20 am)
Wind Speed10.3 mph16.1 mph (7:50 am)
Weather ElementAverage
Visibility4.6 mi
Wind DirectionWSW (263.7 °)

Weather ElementTotal
Precipitation---
Heating Degree Days42.9 (Base 65)
Averaged from 41 records on January 23, 2013
WEATHER CONDITIONS BREAKOUT
WIND DIRECTION BREAKOUT
WEATHER BY HOUR - JANUARY 23, 2013
[ °C ]   °F
Local TimeTemperatureDewpointHumidityBarometerVisibilityWind DirectionWind SpeedGust SpeedPrecipitationEventsConditions
1:00 AM20.0 °F18.0 °F87 %29.77 in16.0 miWest (270°)11.2 mphSnowLight Snow Showers
1:50 AM21.2 °F17.6 °F86 %29.74 in6.2 miWest (260°)9.2 mphSnowLight Snow Showers
2:50 AM21.2 °F17.6 °F86 %29.74 in1.9 miWest (270°)11.5 mphSnowLight Snow Showers
3:50 AM19.4 °F17.6 °F93 %29.74 in1.0 miWest (270°)11.5 mphSnowSnow Showers
4:50 AM21.2 °F19.4 °F93 %29.74 in0.9 miWest (270°)13.8 mphSnowSnow Showers
5:20 AM21.2 °F19.4 °F93 %29.71 in1.6 miWest (270°)13.8 mphSnowLight Snow Showers
5:50 AM21.2 °F19.4 °F93 %29.71 in1.1 miWest (260°)11.5 mphSnowSnow Showers
6:20 AM21.2 °F19.4 °F93 %29.71 in1.6 miWest (270°)12.7 mphSnowLight Snow Showers
6:50 AM21.2 °F19.4 °F93 %29.71 in6.2 miWest (270°)10.4 mphScattered Clouds
7:00 AM21.0 °F19.0 °F88 %29.75 in12.0 miWest (270°)11.2 mphSnowLight Snow Showers
7:20 AM21.2 °F17.6 °F86 %29.71 in1.9 miWest (270°)10.4 mphSnowLight Snow Showers
7:50 AM21.2 °F19.4 °F93 %29.71 in6.2 miWest (270°)16.1 mphSnowLight Snow Showers
8:20 AM21.2 °F19.4 °F93 %29.71 in1.1 miWest (280°)13.8 mphSnowSnow Showers
8:50 AM21.2 °F19.4 °F93 %29.71 in5.6 miWest (270°)10.4 mphSnowLight Snow Showers
9:20 AM19.4 °F17.6 °F93 %29.71 in6.2 miWest (270°)12.7 mphScattered Clouds
9:50 AM21.2 °F19.4 °F93 %29.74 in1.2 miWNW (300°)9.2 mphSnowSnow Showers
10:20 AM21.2 °F19.4 °F93 %29.74 in5.0 miWest (270°)12.7 mphSnowLight Snow Showers
10:50 AM21.2 °F19.4 °F93 %29.74 in1.2 miWest (260°)10.4 mphSnowLight Snow Showers
11:20 AM21.2 °F19.4 °F93 %29.74 in6.2 miWNW (290°)10.4 mphSnowLight Snow Showers
11:50 AM21.2 °F19.4 °F93 %29.74 in1.1 miWest (270°)9.2 mphSnowLight Snow Showers
12:20 PM21.2 °F17.6 °F86 %29.74 in6.2 miWest (260°)10.4 mphMostly Cloudy
12:50 PM19.4 °F17.6 °F93 %29.74 in6.2 miWest (270°)11.5 mphMostly Cloudy
1:00 PM21.0 °F19.0 °F89 %29.78 in5.0 miWest (270°)11.2 mphSnowLight Snow Showers
1:20 PM21.2 °F17.6 °F86 %29.74 in6.2 miWest (270°)9.2 mphSnowLight Snow Showers
1:50 PM21.2 °F17.6 °F86 %29.74 in5.0 miWest (280°)9.2 mphSnowLight Snow Showers
2:20 PM21.2 °F17.6 °F86 %29.74 in6.2 miWest (260°)10.4 mphScattered Clouds
2:50 PM21.2 °F17.6 °F86 %29.74 in6.2 miWest (270°)10.4 mphMostly Cloudy
3:20 PM19.4 °F17.6 °F93 %29.74 in6.2 miWest (260°)9.2 mphMostly Cloudy
3:50 PM21.2 °F17.6 °F86 %29.74 in6.2 miWest (260°)9.2 mphMostly Cloudy
4:20 PM23.0 °F17.6 °F80 %29.74 in6.2 miSW (230°)6.9 mphMostly Cloudy
4:50 PM23.0 °F19.4 °F86 %29.74 in5.6 miWSW (240°)6.9 mphSnowLight Snow Showers
5:20 PM23.0 °F19.4 °F86 %29.74 in6.2 miWSW (250°)9.2 mphSnowLight Snow Showers
5:50 PM23.0 °F19.4 °F86 %29.74 in6.2 miWSW (240°)6.9 mphSnowLight Snow Showers
6:20 PM24.8 °F21.2 °F86 %29.74 in1.2 miWSW (240°)8.1 mphSnowSnow Showers
6:50 PM24.8 °F23.0 °F93 %29.74 in0.7 miWSW (250°)8.1 mphSnowSnow Showers
7:00 PM24.0 °F23.0 °F95 %29.77 in1.0 miWSW (240°)6.7 mphSnowHeavy Snow Showers
7:50 PM24.8 °F23.0 °F93 %29.74 in1.0 miWest (260°)6.9 mphSnowSnow Showers
8:50 PM24.8 °F23.0 °F93 %29.74 in6.2 miWest (270°)12.7 mphSnowLight Snow Showers
9:50 PM24.8 °F23.0 °F93 %29.74 in4.3 miWest (260°)12.7 mphSnowLight Snow Showers
10:50 PM24.8 °F23.0 °F93 %29.74 in6.2 miSW (230°)5.8 mphScattered Clouds
11:50 PM24.8 °F23.0 °F93 %29.77 in6.2 miWest (270°)10.4 mphSnowLight Snow Showers
Hourly data recorded from ENDU, located miles away from Finnsnes, Norway







STORIES FROM OUR PARTNERS